Find Kosmos-627

NORAD ID: 7008 Int'l Des: 1973-109 Owner: VMF Country: SU operational
LEOCIRCULARPOLAR

Live Position

Loading 3D Globe...

About Kosmos-627

Description loading...

Upcoming Passes

Passes for default location (London). Set your location on the main map for personalized predictions.

Altitude History

Loading altitude history...

Two-Line Element Set

1 7008U 73109A 26106.89828360 .00000062 00000-0 50405-4 0 9990
2 7008 82.9557 166.8704 0033005 145.1082 28.6560 13.73073880619471
Epoch: Apr 16, 2026 • Age: 12 hours

Current Status

Altitude 968.0 km
Velocity 7.38 km/s
Sub-Earth Point 15.41°N, 7.31°W
Type other

Most Searched